Time,TemperatureF,DewpointF,PressureIn,WindDirection,WindDirectionDegrees,WindSpeedMPH,WindSpeedGustMPH,Humidity,HourlyPrecipIn,Conditions,Clouds,dailyrainin,SolarRadiationWatts/m^2,SoftwareType,DateUTC
2013-07-09 00:00:00,68.2,66.7,30.03,West,272,0.0,0.0,95,0.00,SCT,OVC,0.87,0.0,WeatherDisplay:10.37,2013-07-09 04:00:00,
2013-07-09 00:01:00,68.2,66.7,30.03,West,272,0.0,0.0,95,0.00,RA,OVC,0.00,0.0,WeatherDisplay:10.37,2013-07-09 04:01:00,
2013-07-09 00:02:00,68.2,66.7,30.03,West,272,0.0,0.0,95,0.00,RA,OVC,0.00,0.0,WeatherDisplay:10.37,2013-07-09 04:02:00,
2013-07-09 00:07:00,68.2,67.0,30.03,West,272,0.0,0.0,96,0.00,RA,OVC,0.00,0.0,WeatherDisplay:10.37,2013-07-09 04:07:00,
2013-07-09 00:12:00,68.0,66.8,30.03,West,272,0.0,0.0,96,0.00,SCT,OVC,0.00,0.0,WeatherDisplay:10.37,2013-07-09 04:12:00,
2013-07-09 00:17:00,68.0,66.8,30.03,NNW,338,0.0,0.0,96,0.00,SCT,OVC,0.00,0.0,WeatherDisplay:10.37,2013-07-09 04:17:00,
2013-07-09 00:22:00,68.0,66.8,30.03,NNW,338,0.0,0.0,96,0.00,SCT,OVC,0.00,0.0,WeatherDisplay:10.37,2013-07-09 04:22:00,
2013-07-09 00:27:00,68.0,66.8,30.03,NNW,338,0.0,0.0,96,0.00,SCT,OVC,0.00,0.0,WeatherDisplay:10.37,2013-07-09 04:27:00,
2013-07-09 00:32:00,68.0,66.8,30.03,NNW,338,0.0,0.0,96,0.00,SCT,OVC,0.00,0.0,WeatherDisplay:10.37,2013-07-09 04:32:00,
2013-07-09 00:37:00,68.0,66.8,30.03,NNW,332,0.0,0.0,96,0.00,SCT,OVC,0.00,0.0,WeatherDisplay:10.37,2013-07-09 04:37:00,
2013-07-09 00:42:00,67.8,66.6,30.03,WNW,293,0.0,0.0,96,0.00,SCT,OVC,0.00,0.0,WeatherDisplay:10.37,2013-07-09 04:42:00,
2013-07-09 00:47:00,67.8,66.6,30.03,West,260,0.0,0.0,96,0.00,BKN,OVC,0.00,0.0,WeatherDisplay:10.37,2013-07-09 04:47:00,
2013-07-09 00:52:00,67.6,66.5,30.03,WNW,299,0.0,0.0,96,0.00,BKN,OVC,0.00,0.0,WeatherDisplay:10.37,2013-07-09 04:52:00,
2013-07-09 00:57:00,67.6,66.5,30.03,NW,306,0.0,0.0,96,0.00,BKN,OVC,0.00,0.0,WeatherDisplay:10.37,2013-07-09 04:57:00,
2013-07-09 01:02:00,67.6,66.8,30.03,West,266,0.0,0.0,97,0.00,BKN,OVC,0.00,0.0,WeatherDisplay:10.37,2013-07-09 05:02:00,
2013-07-09 01:07:00,67.5,66.6,30.03,NW,306,0.0,0.0,97,0.00,BKN,OVC,0.00,0.0,WeatherDisplay:10.37,2013-07-09 05:07:00,
2013-07-09 01:12:00,67.5,66.6,30.03,NW,324,0.0,0.0,97,0.00,BKN,OVC,0.00,0.0,WeatherDisplay:10.37,2013-07-09 05:12:00,
2013-07-09 01:17:00,67.5,66.6,30.03,NW,323,0.0,0.0,97,0.00,BKN,OVC,0.00,0.0,WeatherDisplay:10.37,2013-07-09 05:17:00,
2013-07-09 01:22:00,67.5,66.6,30.03,WNW,282,0.0,0.0,97,0.00,BKN,OVC,0.00,0.0,WeatherDisplay:10.37,2013-07-09 05:22:00,
2013-07-09 01:27:00,67.3,66.4,30.03,SSW,200,0.0,0.0,97,0.00,BKN,OVC,0.00,0.0,WeatherDisplay:10.37,2013-07-09 05:27:00,
2013-07-09 01:32:00,67.3,66.4,30.03,NW,320,0.0,0.0,97,0.00,BKN,OVC,0.00,0.0,WeatherDisplay:10.37,2013-07-09 05:32:00,
2013-07-09 01:37:00,67.3,66.4,30.03,NW,320,0.0,0.0,97,0.00,BKN,OVC,0.00,0.0,WeatherDisplay:10.37,2013-07-09 05:37:00,
2013-07-09 01:42:00,67.3,66.4,30.03,NW,319,0.0,0.0,97,0.00,BKN,OVC,0.00,0.0,WeatherDisplay:10.37,2013-07-09 05:42:00,
2013-07-09 01:47:00,67.3,66.4,30.03,NW,312,0.0,0.0,97,0.00,BKN,OVC,0.00,0.0,WeatherDisplay:10.37,2013-07-09 05:47:00,
2013-07-09 01:52:00,67.3,66.4,30.03,WNW,303,0.0,0.0,97,0.00,BKN,OVC,0.00,0.0,WeatherDisplay:10.37,2013-07-09 05:52:00,
2013-07-09 01:57:00,67.3,66.4,30.03,NW,318,0.0,0.0,97,0.00,BKN,OVC,0.00,0.0,WeatherDisplay:10.37,2013-07-09 05:57:00,
2013-07-09 02:02:00,67.1,66.2,30.03,NW,319,0.0,0.0,97,0.00,OVC,,0.00,0.0,WeatherDisplay:10.37,2013-07-09 06:02:00,
2013-07-09 02:07:00,67.1,66.2,30.03,WSW,242,0.0,0.0,97,0.00,OVC,,0.00,0.0,WeatherDisplay:10.37,2013-07-09 06:07:00,
2013-07-09 02:12:00,67.1,66.2,30.03,WSW,242,0.0,0.0,97,0.00,OVC,,0.00,0.0,WeatherDisplay:10.37,2013-07-09 06:12:00,
2013-07-09 02:17:00,67.1,66.2,30.03,WSW,242,0.0,0.0,97,0.00,OVC,,0.00,0.0,WeatherDisplay:10.37,2013-07-09 06:17:00,
2013-07-09 02:22:00,67.1,66.5,30.03,WSW,242,0.0,0.0,98,0.00,OVC,,0.00,0.0,WeatherDisplay:10.37,2013-07-09 06:22:00,
2013-07-09 02:27:00,67.3,66.7,30.03,WSW,242,0.0,0.0,98,0.00,OVC,,0.00,0.0,WeatherDisplay:10.37,2013-07-09 06:27:00,
2013-07-09 02:32:00,67.3,66.7,30.03,WSW,242,0.0,0.0,98,0.00,OVC,,0.00,0.0,WeatherDisplay:10.37,2013-07-09 06:32:00,
2013-07-09 02:37:00,67.1,66.5,30.03,WSW,242,0.0,0.0,98,0.00,OVC,,0.00,0.0,WeatherDisplay:10.37,2013-07-09 06:37:00,
2013-07-09 02:42:00,67.3,66.7,30.03,WSW,242,0.0,0.0,98,0.00,OVC,,0.00,0.0,WeatherDisplay:10.37,2013-07-09 06:42:00,
2013-07-09 02:47:00,67.3,66.7,30.03,WSW,242,0.0,0.0,98,0.00,OVC,,0.00,0.0,WeatherDisplay:10.37,2013-07-09 06:47:00,
2013-07-09 02:52:00,67.3,66.7,30.03,WSW,242,0.0,0.0,98,0.00,OVC,,0.00,0.0,WeatherDisplay:10.37,2013-07-09 06:52:00,
2013-07-09 02:57:00,67.1,66.5,30.03,WSW,242,0.0,0.0,98,0.00,OVC,,0.00,0.0,WeatherDisplay:10.37,2013-07-09 06:57:00,
2013-07-09 03:02:00,67.1,66.5,30.03,West,273,0.0,0.0,98,0.00,OVC,,0.00,0.0,WeatherDisplay:10.37,2013-07-09 07:02:00,
2013-07-09 03:07:00,67.1,66.5,30.03,West,276,0.0,0.0,98,0.00,OVC,,0.00,0.0,WeatherDisplay:10.37,2013-07-09 07:07:00,
2013-07-09 03:12:00,67.1,66.5,30.03,West,276,0.0,0.0,98,0.00,OVC,,0.00,0.0,WeatherDisplay:10.37,2013-07-09 07:12:00,
2013-07-09 03:17:00,66.9,66.3,30.03,West,276,0.0,0.0,98,0.00,OVC,,0.00,0.0,WeatherDisplay:10.37,2013-07-09 07:17:00,
2013-07-09 03:22:00,66.9,66.3,30.03,West,276,0.0,0.0,98,0.00,OVC,,0.00,0.0,WeatherDisplay:10.37,2013-07-09 07:22:00,
2013-07-09 03:27:00,66.9,66.3,30.03,NNW,334,0.0,0.0,98,0.00,OVC,,0.00,0.0,WeatherDisplay:10.37,2013-07-09 07:27:00,
2013-07-09 03:32:00,66.9,66.3,30.03,NNW,334,0.0,0.0,98,0.00,OVC,,0.00,0.0,WeatherDisplay:10.37,2013-07-09 07:32:00,
2013-07-09 03:37:00,66.9,66.3,30.03,NNW,334,0.0,0.0,98,0.00,OVC,,0.00,0.0,WeatherDisplay:10.37,2013-07-09 07:37:00,
2013-07-09 03:42:00,66.9,66.3,30.03,NNW,330,0.0,0.0,98,0.00,OVC,,0.00,0.0,WeatherDisplay:10.37,2013-07-09 07:42:00,
2013-07-09 03:47:00,66.9,66.3,30.03,WNW,301,0.0,0.0,98,0.00,OVC,,0.00,0.0,WeatherDisplay:10.37,2013-07-09 07:47:00,
2013-07-09 03:52:00,66.9,66.3,30.03,WNW,301,0.0,0.0,98,0.00,OVC,,0.00,0.0,WeatherDisplay:10.37,2013-07-09 07:52:00,
2013-07-09 03:57:00,66.9,66.3,30.03,WNW,301,0.0,0.0,98,0.00,OVC,,0.00,0.0,WeatherDisplay:10.37,2013-07-09 07:57:00,
2013-07-09 04:02:00,66.9,66.3,30.03,WNW,301,0.0,0.0,98,0.00,OVC,,0.00,0.0,WeatherDisplay:10.37,2013-07-09 08:02:00,
2013-07-09 04:07:00,66.9,66.3,30.03,WNW,301,0.0,0.0,98,0.00,OVC,,0.00,0.0,WeatherDisplay:10.37,2013-07-09 08:07:00,
2013-07-09 04:12:00,66.9,66.3,30.03,NW,322,0.0,0.0,98,0.00,OVC,,0.00,0.0,WeatherDisplay:10.37,2013-07-09 08:12:00,
2013-07-09 04:17:00,66.9,66.3,30.03,NW,322,0.0,0.0,98,0.00,OVC,,0.00,0.0,WeatherDisplay:10.37,2013-07-09 08:17:00,
2013-07-09 04:22:00,66.9,66.3,30.03,NW,322,0.0,0.0,98,0.00,OVC,,0.00,0.0,WeatherDisplay:10.37,2013-07-09 08:22:00,
2013-07-09 04:27:00,66.9,66.3,30.03,NW,322,0.0,0.0,98,0.00,OVC,,0.00,0.0,WeatherDisplay:10.37,2013-07-09 08:27:00,
2013-07-09 04:32:00,66.9,66.6,30.03,NW,322,0.0,0.0,99,0.00,,OVC,0.00,0.0,WeatherDisplay:10.37,2013-07-09 08:32:00,
2013-07-09 04:37:00,66.9,66.6,30.03,NNW,343,0.0,0.0,99,0.00,,OVC,0.00,0.0,WeatherDisplay:10.37,2013-07-09 08:37:00,
2013-07-09 04:42:00,66.9,66.6,30.03,WNW,303,0.0,0.0,99,0.00,,OVC,0.00,0.0,WeatherDisplay:10.37,2013-07-09 08:42:00,
2013-07-09 04:47:00,66.9,66.6,30.03,WNW,303,0.0,0.0,99,0.00,OVC,,0.00,0.0,WeatherDisplay:10.37,2013-07-09 08:47:00,
2013-07-09 04:52:00,66.9,66.6,30.03,WNW,303,0.0,0.0,99,0.00,OVC,,0.00,0.0,WeatherDisplay:10.37,2013-07-09 08:52:00,
2013-07-09 04:57:00,66.9,66.6,30.03,WNW,303,0.0,0.0,99,0.00,OVC,,0.00,0.0,WeatherDisplay:10.37,2013-07-09 08:57:00,
2013-07-09 05:02:00,66.9,66.6,30.03,West,281,0.0,0.0,99,0.00,OVC,,0.00,0.0,WeatherDisplay:10.37,2013-07-09 09:02:00,
2013-07-09 05:07:00,66.9,66.6,30.03,NW,306,0.0,0.0,99,0.00,OVC,,0.00,0.0,WeatherDisplay:10.37,2013-07-09 09:07:00,
2013-07-09 05:12:00,66.9,66.6,30.03,WNW,294,0.0,0.0,99,0.00,OVC,,0.00,0.0,WeatherDisplay:10.37,2013-07-09 09:12:00,
2013-07-09 05:17:00,66.9,66.6,30.03,West,259,0.0,0.0,99,0.00,OVC,,0.00,0.0,WeatherDisplay:10.37,2013-07-09 09:17:00,
2013-07-09 05:22:00,66.9,66.6,30.03,West,259,0.0,0.0,99,0.00,OVC,,0.00,0.0,WeatherDisplay:10.37,2013-07-09 09:22:00,
2013-07-09 05:27:00,66.9,66.6,30.03,West,265,0.0,0.0,99,0.00,OVC,,0.00,0.0,WeatherDisplay:10.37,2013-07-09 09:27:00,
2013-07-09 05:32:00,66.9,66.6,30.03,West,265,0.0,0.0,99,0.00,OVC,,0.00,0.0,WeatherDisplay:10.37,2013-07-09 09:32:00,
2013-07-09 05:37:00,66.9,66.6,30.03,WNW,282,0.0,0.0,99,0.00,OVC,,0.00,0.0,WeatherDisplay:10.37,2013-07-09 09:37:00,
2013-07-09 05:42:00,66.9,66.6,30.06,WNW,282,0.0,0.0,99,0.00,OVC,,0.00,0.0,WeatherDisplay:10.37,2013-07-09 09:42:00,
2013-07-09 05:47:00,66.9,66.6,30.06,WNW,282,0.0,0.0,99,0.00,OVC,,0.00,0.0,WeatherDisplay:10.37,2013-07-09 09:47:00,
2013-07-09 05:52:00,66.9,66.6,30.06,WNW,282,0.0,0.0,99,0.00,OVC,,0.00,0.0,WeatherDisplay:10.37,2013-07-09 09:52:00,
2013-07-09 05:57:00,66.9,66.6,30.06,WNW,282,0.0,0.0,99,0.00,OVC,,0.00,0.0,WeatherDisplay:10.37,2013-07-09 09:57:00,
2013-07-09 06:02:00,66.9,66.6,30.06,WNW,282,0.0,0.0,99,0.00,OVC,,0.00,0.0,WeatherDisplay:10.37,2013-07-09 10:02:00,
2013-07-09 06:07:00,66.9,66.6,30.06,WNW,282,0.0,0.0,99,0.00,OVC,,0.00,0.0,WeatherDisplay:10.37,2013-07-09 10:07:00,
2013-07-09 06:12:00,67.1,67.1,30.06,WNW,282,0.0,0.0,100,0.00,OVC,,0.00,0.0,WeatherDisplay:10.37,2013-07-09 10:12:00,
2013-07-09 06:17:00,67.1,67.1,30.06,WNW,282,0.0,0.0,100,0.00,OVC,,0.00,0.0,WeatherDisplay:10.37,2013-07-09 10:17:00,
2013-07-09 06:22:00,67.1,67.1,30.06,WNW,282,0.0,0.0,100,0.00,OVC,,0.00,0.0,WeatherDisplay:10.37,2013-07-09 10:22:00,
2013-07-09 06:27:00,67.1,67.1,30.06,WNW,282,0.0,0.0,100,0.00,OVC,,0.00,0.0,WeatherDisplay:10.37,2013-07-09 10:27:00,
2013-07-09 06:32:00,67.3,67.3,30.06,WNW,282,0.0,0.0,100,0.00,OVC,,0.00,0.0,WeatherDisplay:10.37,2013-07-09 10:32:00,
2013-07-09 06:37:00,67.3,67.3,30.06,WNW,282,0.0,0.0,100,0.00,OVC,,0.00,0.0,WeatherDisplay:10.37,2013-07-09 10:37:00,
2013-07-09 06:42:00,67.3,67.3,30.06,WNW,282,0.0,0.0,100,0.00,OVC,,0.00,0.0,WeatherDisplay:10.37,2013-07-09 10:42:00,
2013-07-09 06:47:00,67.3,67.3,30.06,WNW,282,0.0,0.0,100,0.00,OVC,,0.00,0.0,WeatherDisplay:10.37,2013-07-09 10:47:00,
2013-07-09 06:52:00,67.3,67.3,30.06,WNW,282,0.0,0.0,100,0.00,OVC,,0.00,0.0,WeatherDisplay:10.37,2013-07-09 10:52:00,
2013-07-09 06:57:00,67.3,67.3,30.06,WNW,282,0.0,0.0,100,0.00,OVC,,0.00,0.0,WeatherDisplay:10.37,2013-07-09 10:57:00,
2013-07-09 07:02:00,67.3,67.3,30.06,WNW,282,0.0,0.0,100,0.00,OVC,,0.00,0.0,WeatherDisplay:10.37,2013-07-09 11:02:00,
2013-07-09 07:07:00,67.5,67.5,30.06,WNW,282,0.0,0.0,100,0.00,OVC,,0.00,0.0,WeatherDisplay:10.37,2013-07-09 11:07:00,
2013-07-09 07:12:00,67.5,67.5,30.06,WNW,282,0.0,0.0,100,0.00,OVC,,0.00,0.0,WeatherDisplay:10.37,2013-07-09 11:12:00,
2013-07-09 07:17:00,67.5,67.5,30.06,WNW,282,0.0,0.0,100,0.00,OVC,,0.00,0.0,WeatherDisplay:10.37,2013-07-09 11:17:00,
2013-07-09 07:22:00,67.5,67.5,30.06,WNW,282,0.0,0.0,100,0.00,OVC,,0.00,0.0,WeatherDisplay:10.37,2013-07-09 11:22:00,
2013-07-09 07:27:00,67.5,67.5,30.06,WNW,282,0.0,0.0,100,0.00,OVC,,0.00,0.0,WeatherDisplay:10.37,2013-07-09 11:27:00,
2013-07-09 07:32:00,67.5,67.5,30.06,WNW,282,0.0,0.0,100,0.00,OVC,,0.00,0.0,WeatherDisplay:10.37,2013-07-09 11:32:00,
2013-07-09 07:37:00,67.5,67.5,30.06,WNW,282,0.0,0.0,100,0.00,OVC,,0.00,0.0,WeatherDisplay:10.37,2013-07-09 11:37:00,
2013-07-09 07:42:00,67.6,67.6,30.06,WNW,282,0.0,0.0,100,0.00,OVC,,0.00,0.0,WeatherDisplay:10.37,2013-07-09 11:42:00,
2013-07-09 07:47:00,67.6,67.6,30.06,WNW,282,0.0,0.0,100,0.00,OVC,,0.00,0.0,WeatherDisplay:10.37,2013-07-09 11:47:00,
2013-07-09 07:52:00,67.8,67.8,30.06,WNW,282,0.0,0.0,100,0.00,OVC,,0.00,0.0,WeatherDisplay:10.37,2013-07-09 11:52:00,
2013-07-09 07:57:00,67.8,67.8,30.08,WNW,282,0.0,0.0,100,0.00,OVC,,0.00,0.0,WeatherDisplay:10.37,2013-07-09 11:57:00,
2013-07-09 08:02:00,67.8,67.8,30.08,WNW,282,0.0,0.0,100,0.00,OVC,,0.00,0.0,WeatherDisplay:10.37,2013-07-09 12:02:00,
2013-07-09 08:07:00,67.8,67.8,30.08,WNW,282,0.0,0.0,100,0.00,OVC,,0.00,0.0,WeatherDisplay:10.37,2013-07-09 12:07:00,
2013-07-09 08:12:00,68.0,68.0,30.06,WNW,282,0.0,0.0,100,0.00,OVC,,0.00,0.0,WeatherDisplay:10.37,2013-07-09 12:12:00,
2013-07-09 08:17:00,68.2,68.2,30.06,WNW,282,0.0,0.0,100,0.00,OVC,,0.00,0.0,WeatherDisplay:10.37,2013-07-09 12:17:00,
2013-07-09 08:22:00,68.4,68.4,30.06,WNW,282,0.0,0.0,100,0.00,OVC,,0.00,0.0,WeatherDisplay:10.37,2013-07-09 12:22:00,
2013-07-09 08:27:00,68.4,68.4,30.06,WNW,282,0.0,0.0,100,0.00,OVC,,0.00,0.0,WeatherDisplay:10.37,2013-07-09 12:27:00,
2013-07-09 08:32:00,68.4,68.4,30.06,WNW,282,0.0,0.0,100,0.00,OVC,,0.00,0.0,WeatherDisplay:10.37,2013-07-09 12:32:00,
2013-07-09 08:37:00,68.4,68.4,30.06,WNW,282,0.0,0.0,100,0.00,OVC,,0.00,0.0,WeatherDisplay:10.37,2013-07-09 12:37:00,
2013-07-09 08:42:00,68.7,68.7,30.08,WNW,282,0.0,0.0,100,0.00,OVC,,0.00,0.0,WeatherDisplay:10.37,2013-07-09 12:42:00,
2013-07-09 08:47:00,68.9,68.9,30.08,WNW,282,0.0,0.0,100,0.00,OVC,,0.00,0.0,WeatherDisplay:10.37,2013-07-09 12:47:00,
2013-07-09 08:52:00,68.9,68.9,30.08,WNW,282,0.0,0.0,100,0.00,OVC,,0.00,0.0,WeatherDisplay:10.37,2013-07-09 12:52:00,
2013-07-09 08:57:00,69.1,69.1,30.08,WNW,282,0.0,0.0,100,0.00,OVC,,0.00,0.0,WeatherDisplay:10.37,2013-07-09 12:57:00,
2013-07-09 09:02:00,69.1,69.1,30.08,WNW,282,0.0,0.0,100,0.00,OVC,,0.00,0.0,WeatherDisplay:10.37,2013-07-09 13:02:00,
2013-07-09 09:07:00,69.1,69.1,30.08,WNW,282,0.0,0.0,100,0.00,OVC,,0.00,0.0,WeatherDisplay:10.37,2013-07-09 13:07:00,
2013-07-09 09:12:00,69.3,69.3,30.08,North,8,0.0,0.0,100,0.00,OVC,,0.00,0.0,WeatherDisplay:10.37,2013-07-09 13:12:00,
2013-07-09 09:17:00,69.3,69.3,30.08,NNE,14,0.0,0.0,100,0.00,OVC,,0.00,0.0,WeatherDisplay:10.37,2013-07-09 13:17:00,
2013-07-09 09:22:00,69.1,69.1,30.08,NNE,14,0.0,0.0,100,0.00,OVC,,0.00,0.0,WeatherDisplay:10.37,2013-07-09 13:22:00,
2013-07-09 09:27:00,69.1,69.1,30.06,NNE,14,0.0,0.0,100,0.00,OVC,,0.00,0.0,WeatherDisplay:10.37,2013-07-09 13:27:00,
2013-07-09 09:32:00,69.3,69.3,30.06,NNE,14,0.0,0.0,100,0.00,OVC,,0.00,0.0,WeatherDisplay:10.37,2013-07-09 13:32:00,
2013-07-09 09:37:00,69.3,69.3,30.06,North,358,0.0,0.0,100,0.00,OVC,,0.00,0.0,WeatherDisplay:10.37,2013-07-09 13:37:00,
2013-07-09 09:42:00,69.4,69.4,30.06,North,358,0.0,0.0,100,0.00,OVC,,0.00,0.0,WeatherDisplay:10.37,2013-07-09 13:42:00,
2013-07-09 09:47:00,69.6,69.6,30.06,North,350,0.0,0.0,100,0.00,OVC,,0.00,0.0,WeatherDisplay:10.37,2013-07-09 13:47:00,
2013-07-09 09:52:00,69.6,69.6,30.06,North,350,0.0,0.0,100,0.00,OVC,,0.00,0.0,WeatherDisplay:10.37,2013-07-09 13:52:00,
2013-07-09 09:57:00,69.8,69.8,30.06,North,352,0.0,0.0,100,0.00,OVC,,0.00,0.0,WeatherDisplay:10.37,2013-07-09 13:57:00,
2013-07-09 10:02:00,69.8,69.8,30.06,NW,307,0.0,0.0,100,0.00,OVC,,0.00,0.0,WeatherDisplay:10.37,2013-07-09 14:02:00,
2013-07-09 10:07:00,70.0,70.0,30.06,NW,322,0.0,0.0,100,0.00,OVC,,0.00,0.0,WeatherDisplay:10.37,2013-07-09 14:07:00,
2013-07-09 10:12:00,69.8,69.8,30.06,NW,307,0.0,0.0,100,0.00,OVC,,0.00,0.0,WeatherDisplay:10.37,2013-07-09 14:12:00,
2013-07-09 10:17:00,69.6,69.6,30.06,NW,307,0.0,0.0,100,0.00,OVC,,0.00,0.0,WeatherDisplay:10.37,2013-07-09 14:17:00,
2013-07-09 10:22:00,69.8,69.8,30.06,NW,307,0.0,0.0,100,0.00,OVC,,0.00,0.0,WeatherDisplay:10.37,2013-07-09 14:22:00,
2013-07-09 10:27:00,70.0,70.0,30.06,NW,307,0.0,0.0,100,0.00,OVC,,0.00,0.0,WeatherDisplay:10.37,2013-07-09 14:27:00,
2013-07-09 10:32:00,70.0,70.0,30.06,WNW,287,0.0,0.0,100,0.00,OVC,,0.00,0.0,WeatherDisplay:10.37,2013-07-09 14:32:00,
2013-07-09 10:37:00,70.0,70.0,30.06,WNW,295,0.0,0.0,100,0.00,OVC,,0.00,0.0,WeatherDisplay:10.37,2013-07-09 14:37:00,
2013-07-09 10:42:00,70.0,70.0,30.06,East,86,0.0,0.0,100,0.00,OVC,,0.00,0.0,WeatherDisplay:10.37,2013-07-09 14:42:00,
2013-07-09 10:47:00,70.0,70.0,30.06,NW,316,0.0,0.0,100,0.00,OVC,,0.00,0.0,WeatherDisplay:10.37,2013-07-09 14:47:00,
2013-07-09 10:52:00,70.2,70.2,30.06,NW,316,0.0,0.0,100,0.00,OVC,,0.00,0.0,WeatherDisplay:10.37,2013-07-09 14:52:00,
2013-07-09 10:57:00,70.2,70.2,30.06,NNW,338,0.0,0.0,100,0.00,OVC,,0.00,0.0,WeatherDisplay:10.37,2013-07-09 14:57:00,
2013-07-09 11:02:00,70.2,70.2,30.06,North,6,0.0,0.0,100,0.00,OVC,,0.00,0.0,WeatherDisplay:10.37,2013-07-09 15:02:00,
2013-07-09 11:07:00,70.3,70.3,30.06,North,5,0.0,0.0,100,0.00,OVC,,0.00,0.0,WeatherDisplay:10.37,2013-07-09 15:07:00,
2013-07-09 11:12:00,70.5,70.5,30.06,NW,317,0.0,0.0,100,0.00,OVC,,0.00,0.0,WeatherDisplay:10.37,2013-07-09 15:12:00,
2013-07-09 11:17:00,70.3,70.3,30.06,East,90,0.0,0.0,100,0.00,OVC,,0.00,0.0,WeatherDisplay:10.37,2013-07-09 15:17:00,
2013-07-09 11:22:00,70.3,70.3,30.06,East,90,0.0,0.0,100,0.00,OVC,,0.00,0.0,WeatherDisplay:10.37,2013-07-09 15:22:00,
2013-07-09 11:27:00,70.3,70.3,30.08,NNW,335,0.0,0.0,100,0.00,OVC,,0.00,0.0,WeatherDisplay:10.37,2013-07-09 15:27:00,
2013-07-09 11:32:00,70.3,70.3,30.08,NW,305,0.0,0.0,100,0.00,OVC,,0.00,0.0,WeatherDisplay:10.37,2013-07-09 15:32:00,
2013-07-09 11:37:00,70.3,70.3,30.08,NW,304,0.0,0.0,100,0.00,OVC,,0.00,0.0,WeatherDisplay:10.37,2013-07-09 15:37:00,
2013-07-09 11:42:00,70.7,70.7,30.08,WNW,286,0.0,0.0,100,0.00,OVC,,0.00,0.0,WeatherDisplay:10.37,2013-07-09 15:42:00,
2013-07-09 11:47:00,70.7,70.7,30.08,NW,315,0.0,0.0,100,0.00,OVC,,0.00,0.0,WeatherDisplay:10.37,2013-07-09 15:47:00,
2013-07-09 11:52:00,70.9,70.9,30.08,NW,315,0.0,0.0,100,0.00,OVC,,0.00,0.0,WeatherDisplay:10.37,2013-07-09 15:52:00,
2013-07-09 11:57:00,70.9,70.9,30.08,NW,315,0.0,0.0,100,0.00,OVC,,0.00,0.0,WeatherDisplay:10.37,2013-07-09 15:57:00,
2013-07-09 12:02:00,71.1,71.1,30.08,West,260,0.0,0.0,100,0.00,OVC,,0.00,0.0,WeatherDisplay:10.37,2013-07-09 16:02:00,
2013-07-09 12:07:00,70.9,70.9,30.08,WNW,302,0.0,0.0,100,0.00,OVC,,0.00,0.0,WeatherDisplay:10.37,2013-07-09 16:07:00,
2013-07-09 12:12:00,71.1,71.1,30.08,WNW,301,0.0,0.0,100,0.00,OVC,,0.00,0.0,WeatherDisplay:10.37,2013-07-09 16:12:00,
2013-07-09 12:17:00,71.1,71.1,30.08,WNW,301,0.0,0.0,100,0.00,OVC,,0.00,0.0,WeatherDisplay:10.37,2013-07-09 16:17:00,
2013-07-09 12:22:00,71.2,71.2,30.08,WNW,301,0.0,0.0,100,0.00,OVC,,0.00,0.0,WeatherDisplay:10.37,2013-07-09 16:22:00,
2013-07-09 12:27:00,71.4,71.4,30.08,SE,144,0.0,0.0,100,0.00,OVC,,0.00,0.0,WeatherDisplay:10.37,2013-07-09 16:27:00,
2013-07-09 12:32:00,71.4,71.4,30.08,SE,140,0.0,0.0,100,0.00,OVC,,0.00,0.0,WeatherDisplay:10.37,2013-07-09 16:32:00,
2013-07-09 12:37:00,71.6,71.6,30.08,SE,141,0.0,0.0,100,0.00,OVC,,0.00,0.0,WeatherDisplay:10.37,2013-07-09 16:37:00,
2013-07-09 12:42:00,71.6,71.6,30.08,SSE,147,0.0,0.0,100,0.00,OVC,,0.00,0.0,WeatherDisplay:10.37,2013-07-09 16:42:00,
2013-07-09 12:47:00,71.6,71.6,30.08,SSE,147,0.0,0.0,100,0.00,OVC,,0.00,0.0,WeatherDisplay:10.37,2013-07-09 16:47:00,
2013-07-09 12:52:00,71.6,71.6,30.08,SSE,147,0.0,0.0,100,0.00,OVC,,0.00,0.0,WeatherDisplay:10.37,2013-07-09 16:52:00,
2013-07-09 12:57:00,71.8,71.8,30.08,SSE,147,0.0,0.0,100,0.00,OVC,,0.00,0.0,WeatherDisplay:10.37,2013-07-09 16:57:00,
2013-07-09 13:02:00,72.0,72.0,30.08,SSE,147,0.0,0.0,100,0.00,OVC,,0.00,0.0,WeatherDisplay:10.37,2013-07-09 17:02:00,
2013-07-09 13:07:00,72.1,72.1,30.08,SSE,147,0.0,0.0,100,0.00,OVC,,0.00,0.0,WeatherDisplay:10.37,2013-07-09 17:07:00,
2013-07-09 13:12:00,72.3,72.3,30.06,SSE,147,0.0,0.0,100,0.00,OVC,,0.00,0.0,WeatherDisplay:10.37,2013-07-09 17:12:00,
2013-07-09 13:17:00,72.5,72.5,30.06,SE,145,0.0,0.0,100,0.00,OVC,,0.00,0.0,WeatherDisplay:10.37,2013-07-09 17:17:00,
2013-07-09 13:22:00,72.5,72.5,30.06,SE,146,0.0,0.0,100,0.00,OVC,,0.00,0.0,WeatherDisplay:10.37,2013-07-09 17:22:00,
2013-07-09 13:27:00,72.7,72.7,30.06,SSE,152,0.0,0.0,100,0.00,OVC,,0.00,0.0,WeatherDisplay:10.37,2013-07-09 17:27:00,
2013-07-09 13:32:00,72.9,72.9,30.06,SSE,165,0.0,0.0,100,0.00,OVC,,0.00,0.0,WeatherDisplay:10.37,2013-07-09 17:32:00,
2013-07-09 13:37:00,73.0,73.0,30.06,SSE,151,0.0,0.0,100,0.00,OVC,,0.00,0.0,WeatherDisplay:10.37,2013-07-09 17:37:00,
2013-07-09 13:42:00,73.0,73.0,30.06,SSW,208,0.0,0.0,100,0.00,OVC,,0.00,0.0,WeatherDisplay:10.37,2013-07-09 17:42:00,
2013-07-09 13:47:00,73.2,73.2,30.06,South,180,0.0,0.0,100,0.00,OVC,,0.00,0.0,WeatherDisplay:10.37,2013-07-09 17:47:00,
2013-07-09 13:52:00,73.4,73.1,30.06,SSE,161,3.6,0.0,99,0.00,OVC,,0.00,0.0,WeatherDisplay:10.37,2013-07-09 17:52:00,
2013-07-09 13:57:00,73.6,73.3,30.06,South,186,3.5,3.5,99,0.00,OVC,,0.00,0.0,WeatherDisplay:10.37,2013-07-09 17:57:00,
2013-07-09 14:02:00,73.6,73.3,30.06,SSE,152,0.0,0.0,99,0.00,OVC,,0.00,0.0,WeatherDisplay:10.37,2013-07-09 18:02:00,
2013-07-09 14:07:00,73.8,73.2,30.06,SSE,166,0.0,0.0,98,0.00,OVC,,0.00,0.0,WeatherDisplay:10.37,2013-07-09 18:07:00,
2013-07-09 14:12:00,73.8,73.2,30.06,SSE,166,0.0,0.0,98,0.00,OVC,,0.00,0.0,WeatherDisplay:10.37,2013-07-09 18:12:00,
2013-07-09 14:17:00,73.9,73.3,30.06,SSE,165,0.0,0.0,98,0.00,OVC,,0.00,0.0,WeatherDisplay:10.37,2013-07-09 18:17:00,
2013-07-09 14:22:00,74.1,73.5,30.06,South,177,0.0,0.0,98,0.00,OVC,,0.00,0.0,WeatherDisplay:10.37,2013-07-09 18:22:00,
2013-07-09 14:27:00,74.1,73.2,30.06,South,177,0.0,0.0,97,0.00,OVC,,0.00,0.0,WeatherDisplay:10.37,2013-07-09 18:27:00,
2013-07-09 14:32:00,74.1,73.2,30.06,South,177,0.0,0.0,97,0.00,OVC,,0.00,0.0,WeatherDisplay:10.37,2013-07-09 18:32:00,
2013-07-09 14:37:00,73.9,73.0,30.06,South,177,0.0,0.0,97,0.00,OVC,,0.00,0.0,WeatherDisplay:10.37,2013-07-09 18:37:00,
2013-07-09 14:42:00,73.9,73.0,30.06,South,177,0.0,0.0,97,0.00,OVC,,0.00,0.0,WeatherDisplay:10.37,2013-07-09 18:42:00,
2013-07-09 14:47:00,73.9,72.7,30.06,South,177,0.0,0.0,96,0.00,OVC,,0.00,0.0,WeatherDisplay:10.37,2013-07-09 18:47:00,
2013-07-09 14:52:00,73.9,72.7,30.06,South,177,0.0,0.0,96,0.00,OVC,,0.00,0.0,WeatherDisplay:10.37,2013-07-09 18:52:00,
2013-07-09 14:57:00,73.9,72.7,30.06,South,173,0.0,0.0,96,0.00,OVC,,0.00,0.0,WeatherDisplay:10.37,2013-07-09 18:57:00,
2013-07-09 15:02:00,73.8,72.5,30.06,West,281,0.0,0.0,96,0.00,OVC,,0.00,0.0,WeatherDisplay:10.37,2013-07-09 19:02:00,
2013-07-09 15:07:00,73.8,72.5,30.06,West,281,0.0,0.0,96,0.00,OVC,,0.00,0.0,WeatherDisplay:10.37,2013-07-09 19:07:00,
2013-07-09 15:12:00,73.9,72.7,30.06,West,281,0.0,0.0,96,0.00,OVC,,0.00,0.0,WeatherDisplay:10.37,2013-07-09 19:12:00,
2013-07-09 15:17:00,74.1,72.6,30.06,West,281,0.0,0.0,95,0.00,OVC,,0.00,0.0,WeatherDisplay:10.37,2013-07-09 19:17:00,
2013-07-09 15:22:00,74.7,73.4,30.06,SSE,150,0.0,0.0,96,0.00,OVC,,0.00,0.0,WeatherDisplay:10.37,2013-07-09 19:22:00,
2013-07-09 15:27:00,75.2,74.0,30.06,SE,143,5.8,0.0,96,0.00,OVC,,0.00,0.0,WeatherDisplay:10.37,2013-07-09 19:27:00,
2013-07-09 15:32:00,75.6,74.0,30.06,SE,142,4.6,4.6,95,0.00,OVC,,0.00,0.0,WeatherDisplay:10.37,2013-07-09 19:32:00,
2013-07-09 15:37:00,76.1,74.2,30.06,South,177,0.0,0.0,94,0.00,OVC,,0.00,0.0,WeatherDisplay:10.37,2013-07-09 19:37:00,
2013-07-09 15:42:00,76.3,74.4,30.06,South,187,0.0,0.0,94,0.00,OVC,,0.00,0.0,WeatherDisplay:10.37,2013-07-09 19:42:00,
2013-07-09 15:47:00,76.3,74.1,30.06,SSE,153,3.5,3.5,93,0.00,OVC,,0.00,0.0,WeatherDisplay:10.37,2013-07-09 19:47:00,
2013-07-09 15:52:00,75.7,73.2,30.06,SSE,153,4.6,4.6,92,0.00,OVC,,0.00,0.0,WeatherDisplay:10.37,2013-07-09 19:52:00,
2013-07-09 15:57:00,75.6,72.7,30.06,SE,143,5.8,5.8,91,0.00,OVC,,0.00,0.0,WeatherDisplay:10.37,2013-07-09 19:57:00,
2013-07-09 16:02:00,75.2,72.4,30.06,SSE,161,5.8,5.8,91,0.00,-RA,OVC,0.00,0.0,WeatherDisplay:10.37,2013-07-09 20:02:00,
2013-07-09 16:07:00,75.0,71.6,30.06,South,180,5.8,5.8,89,0.00,-RA,OVC,0.00,0.0,WeatherDisplay:10.37,2013-07-09 20:07:00,
2013-07-09 16:12:00,75.0,71.2,30.06,SSE,168,8.1,8.1,88,0.00,-RA,OVC,0.00,0.0,WeatherDisplay:10.37,2013-07-09 20:12:00,
2013-07-09 16:17:00,75.0,70.9,30.06,South,169,6.9,6.9,87,0.00,-RA,OVC,0.00,0.0,WeatherDisplay:10.37,2013-07-09 20:17:00,
2013-07-09 16:22:00,75.0,70.5,30.06,ESE,114,0.0,0.0,86,0.00,-RA,OVC,0.00,0.0,WeatherDisplay:10.37,2013-07-09 20:22:00,
2013-07-09 16:27:00,75.4,70.6,30.03,SSW,206,0.0,0.0,85,0.00,-RA,OVC,0.00,0.0,WeatherDisplay:10.37,2013-07-09 20:27:00,
2013-07-09 16:32:00,75.6,70.7,30.03,SW,214,5.8,5.8,85,0.00,-RA,OVC,0.00,0.0,WeatherDisplay:10.37,2013-07-09 20:32:00,
2013-07-09 16:37:00,75.7,70.6,30.03,South,180,5.8,5.8,84,0.00,-RA,OVC,0.00,0.0,WeatherDisplay:10.37,2013-07-09 20:37:00,
2013-07-09 16:42:00,75.6,69.7,30.03,SSW,212,0.0,0.0,82,0.00,-RA,OVC,0.00,0.0,WeatherDisplay:10.37,2013-07-09 20:42:00,
2013-07-09 16:47:00,75.7,69.5,30.03,SSW,212,0.0,0.0,81,0.00,-RA,OVC,0.00,0.0,WeatherDisplay:10.37,2013-07-09 20:47:00,
2013-07-09 16:52:00,76.1,69.8,30.03,SSW,213,0.0,0.0,81,0.00,-RA,OVC,0.00,0.0,WeatherDisplay:10.37,2013-07-09 20:52:00,
2013-07-09 16:57:00,76.5,70.2,30.03,SSW,213,0.0,0.0,81,0.00,-RA,OVC,0.00,0.0,WeatherDisplay:10.37,2013-07-09 20:57:00,
2013-07-09 17:02:00,77.0,70.4,30.03,NNW,331,0.0,0.0,80,0.00,OVC,,0.00,0.0,WeatherDisplay:10.37,2013-07-09 21:02:00,
2013-07-09 17:07:00,77.5,70.9,30.03,South,177,0.0,0.0,80,0.00,OVC,,0.00,0.0,WeatherDisplay:10.37,2013-07-09 21:07:00,
2013-07-09 17:12:00,77.9,70.9,30.03,South,177,0.0,0.0,79,0.00,OVC,,0.00,0.0,WeatherDisplay:10.37,2013-07-09 21:12:00,
2013-07-09 17:17:00,77.9,70.1,30.03,SSE,152,0.0,0.0,77,0.00,OVC,,0.00,0.0,WeatherDisplay:10.37,2013-07-09 21:17:00,
2013-07-09 17:22:00,78.1,69.9,30.03,SW,214,0.0,0.0,76,0.00,OVC,,0.00,0.0,WeatherDisplay:10.37,2013-07-09 21:22:00,
2013-07-09 17:27:00,78.3,70.1,30.03,SW,214,0.0,0.0,76,0.00,OVC,,0.00,0.0,WeatherDisplay:10.37,2013-07-09 21:27:00,
2013-07-09 17:32:00,78.3,69.3,30.03,SE,135,0.0,0.0,74,0.00,OVC,,0.00,0.0,WeatherDisplay:10.37,2013-07-09 21:32:00,
2013-07-09 17:37:00,78.1,68.7,30.03,WNW,294,0.0,0.0,73,0.00,OVC,,0.00,0.0,WeatherDisplay:10.37,2013-07-09 21:37:00,
2013-07-09 17:42:00,78.3,68.5,30.03,WNW,297,0.0,0.0,72,0.00,OVC,,0.00,0.0,WeatherDisplay:10.37,2013-07-09 21:42:00,
2013-07-09 17:47:00,78.3,68.9,30.03,South,173,0.0,0.0,73,0.00,OVC,,0.00,0.0,WeatherDisplay:10.37,2013-07-09 21:47:00,
2013-07-09 17:52:00,78.1,68.3,30.03,SSE,166,0.0,0.0,72,0.00,OVC,,0.00,0.0,WeatherDisplay:10.37,2013-07-09 21:52:00,
2013-07-09 17:57:00,77.7,68.0,30.03,SSW,207,0.0,0.0,72,0.00,OVC,,0.00,0.0,WeatherDisplay:10.37,2013-07-09 21:57:00,
2013-07-09 18:02:00,77.7,68.0,30.03,SSW,207,0.0,0.0,72,0.00,BKN,OVC,0.00,0.0,WeatherDisplay:10.37,2013-07-09 22:02:00,
2013-07-09 18:07:00,77.5,67.8,30.03,SSW,207,0.0,0.0,72,0.00,BKN,OVC,0.00,0.0,WeatherDisplay:10.37,2013-07-09 22:07:00,
2013-07-09 18:12:00,77.5,67.8,30.03,SSW,206,0.0,0.0,72,0.00,BKN,OVC,0.00,0.0,WeatherDisplay:10.37,2013-07-09 22:12:00,
2013-07-09 18:17:00,77.5,68.2,30.03,SSW,205,0.0,0.0,73,0.00,BKN,OVC,0.00,0.0,WeatherDisplay:10.37,2013-07-09 22:17:00,
2013-07-09 18:22:00,77.5,67.8,30.03,SSE,149,0.0,0.0,72,0.00,BKN,OVC,0.00,0.0,WeatherDisplay:10.37,2013-07-09 22:22:00,
2013-07-09 18:27:00,77.7,68.0,30.03,SSW,203,0.0,0.0,72,0.00,BKN,OVC,0.00,0.0,WeatherDisplay:10.37,2013-07-09 22:27:00,
2013-07-09 18:32:00,77.4,66.8,30.03,SSW,202,0.0,0.0,70,0.00,BKN,OVC,0.00,0.0,WeatherDisplay:10.37,2013-07-09 22:32:00,
2013-07-09 18:37:00,77.4,67.2,30.03,SSW,203,0.0,0.0,71,0.00,BKN,OVC,0.00,0.0,WeatherDisplay:10.37,2013-07-09 22:37:00,
2013-07-09 18:42:00,77.0,66.9,30.03,SSW,203,0.0,0.0,71,0.00,BKN,OVC,0.00,0.0,WeatherDisplay:10.37,2013-07-09 22:42:00,
2013-07-09 18:47:00,76.8,67.1,30.03,SSW,193,0.0,0.0,72,0.00,BKN,OVC,0.00,0.0,WeatherDisplay:10.37,2013-07-09 22:47:00,
2013-07-09 18:52:00,76.5,66.8,30.03,SSE,154,0.0,0.0,72,0.00,BKN,OVC,0.00,0.0,WeatherDisplay:10.37,2013-07-09 22:52:00,
2013-07-09 18:57:00,76.1,66.8,30.03,SE,125,0.0,0.0,73,0.00,BKN,OVC,0.00,0.0,WeatherDisplay:10.37,2013-07-09 22:57:00,
2013-07-09 19:02:00,75.7,66.5,30.03,South,180,0.0,0.0,73,0.00,BKN,OVC,0.00,0.0,WeatherDisplay:10.37,2013-07-09 23:02:00,
2013-07-09 19:07:00,75.6,66.7,30.03,South,180,0.0,0.0,74,0.00,BKN,OVC,0.00,0.0,WeatherDisplay:10.37,2013-07-09 23:07:00,
2013-07-09 19:12:00,75.4,66.5,30.03,SW,229,0.0,0.0,74,0.00,BKN,OVC,0.00,0.0,WeatherDisplay:10.37,2013-07-09 23:12:00,
2013-07-09 19:17:00,75.2,66.3,30.03,SSE,165,0.0,0.0,74,0.00,BKN,OVC,0.00,0.0,WeatherDisplay:10.37,2013-07-09 23:17:00,
2013-07-09 19:22:00,75.2,67.1,30.03,SSE,165,0.0,0.0,76,0.00,BKN,OVC,0.00,0.0,WeatherDisplay:10.37,2013-07-09 23:22:00,
2013-07-09 19:27:00,75.2,67.1,30.03,SSE,165,0.0,0.0,76,0.00,BKN,OVC,0.00,0.0,WeatherDisplay:10.37,2013-07-09 23:27:00,
2013-07-09 19:32:00,75.0,67.3,30.03,SSE,165,0.0,0.0,77,0.00,BKN,OVC,0.00,0.0,WeatherDisplay:10.37,2013-07-09 23:32:00,
2013-07-09 19:37:00,74.8,67.1,30.03,SSE,165,0.0,0.0,77,0.00,BKN,OVC,0.00,0.0,WeatherDisplay:10.37,2013-07-09 23:37:00,
2013-07-09 19:42:00,74.5,66.8,30.03,SSE,149,0.0,0.0,77,0.00,BKN,OVC,0.00,0.0,WeatherDisplay:10.37,2013-07-09 23:42:00,
2013-07-09 19:47:00,74.3,66.2,30.03,SSE,149,0.0,0.0,76,0.00,BKN,OVC,0.00,0.0,WeatherDisplay:10.37,2013-07-09 23:47:00,
2013-07-09 19:52:00,74.1,66.1,30.03,SSE,148,0.0,0.0,76,0.00,BKN,OVC,0.00,0.0,WeatherDisplay:10.37,2013-07-09 23:52:00,
2013-07-09 19:57:00,73.9,65.9,30.03,SSE,148,0.0,0.0,76,0.00,BKN,OVC,0.00,0.0,WeatherDisplay:10.37,2013-07-09 23:57:00,
2013-07-09 20:02:00,73.6,65.5,30.03,SSE,148,0.0,0.0,76,0.00,OVC,,0.00,0.0,WeatherDisplay:10.37,2013-07-10 00:02:00,
2013-07-09 20:07:00,73.4,65.4,30.03,SSE,148,0.0,0.0,76,0.00,OVC,,0.00,0.0,WeatherDisplay:10.37,2013-07-10 00:07:00,
2013-07-09 20:12:00,73.2,65.6,30.03,NNW,330,0.0,0.0,77,0.00,OVC,,0.00,0.0,WeatherDisplay:10.37,2013-07-10 00:12:00,
2013-07-09 20:17:00,73.2,65.9,30.03,NW,318,0.0,0.0,78,0.00,OVC,,0.00,0.0,WeatherDisplay:10.37,2013-07-10 00:17:00,
2013-07-09 20:22:00,73.0,66.1,30.03,NNE,20,0.0,0.0,79,0.00,OVC,,0.00,0.0,WeatherDisplay:10.37,2013-07-10 00:22:00,
2013-07-09 20:27:00,73.0,66.5,30.03,NNW,330,0.0,0.0,80,0.00,OVC,,0.00,0.0,WeatherDisplay:10.37,2013-07-10 00:27:00,
2013-07-09 20:32:00,73.0,66.5,30.03,NNW,330,0.0,0.0,80,0.00,OVC,,0.00,0.0,WeatherDisplay:10.37,2013-07-10 00:32:00,
2013-07-09 20:37:00,72.9,66.7,30.03,NNW,330,0.0,0.0,81,0.00,OVC,,0.00,0.0,WeatherDisplay:10.37,2013-07-10 00:37:00,
2013-07-09 20:42:00,72.7,66.9,30.03,NNW,330,0.0,0.0,82,0.00,OVC,,0.00,0.0,WeatherDisplay:10.37,2013-07-10 00:42:00,
2013-07-09 20:47:00,72.5,67.0,30.03,NNW,330,0.0,0.0,83,0.00,OVC,,0.00,0.0,WeatherDisplay:10.37,2013-07-10 00:47:00,
2013-07-09 20:52:00,72.3,67.2,30.03,NW,320,0.0,0.0,84,0.00,OVC,,0.00,0.0,WeatherDisplay:10.37,2013-07-10 00:52:00,
2013-07-09 20:57:00,72.1,67.0,30.06,North,8,0.0,0.0,84,0.00,OVC,,0.00,0.0,WeatherDisplay:10.37,2013-07-10 00:57:00,
2013-07-09 21:02:00,72.1,67.0,30.06,North,8,0.0,0.0,84,0.00,BKN,OVC,0.00,0.0,WeatherDisplay:10.37,2013-07-10 01:02:00,
2013-07-09 21:07:00,72.0,66.9,30.06,WSW,253,0.0,0.0,84,0.00,BKN,OVC,0.00,0.0,WeatherDisplay:10.37,2013-07-10 01:07:00,
2013-07-09 21:12:00,71.8,66.7,30.03,WSW,239,0.0,0.0,84,0.00,BKN,OVC,0.00,0.0,WeatherDisplay:10.37,2013-07-10 01:12:00,
2013-07-09 21:17:00,71.4,66.7,30.03,WSW,238,0.0,0.0,85,0.00,BKN,OVC,0.00,0.0,WeatherDisplay:10.37,2013-07-10 01:17:00,
2013-07-09 21:22:00,71.2,66.5,30.03,WSW,252,0.0,0.0,85,0.00,BKN,OVC,0.00,0.0,WeatherDisplay:10.37,2013-07-10 01:22:00,
2013-07-09 21:27:00,71.1,66.7,30.06,WSW,252,0.0,0.0,86,0.00,BKN,OVC,0.00,0.0,WeatherDisplay:10.37,2013-07-10 01:27:00,
2013-07-09 21:31:00,70.9,66.5,30.06,West,262,0.0,0.0,86,0.00,BKN,OVC,0.00,0.0,WeatherDisplay:10.37,2013-07-10 01:31:00,
2013-07-09 21:36:00,70.7,66.3,30.06,WNW,303,0.0,0.0,86,0.00,BKN,OVC,0.00,0.0,WeatherDisplay:10.37,2013-07-10 01:36:00,
2013-07-09 21:41:00,70.7,66.6,30.06,WNW,294,0.0,0.0,87,0.00,BKN,OVC,0.00,0.0,WeatherDisplay:10.37,2013-07-10 01:41:00,
2013-07-09 21:46:00,70.5,66.5,30.06,WNW,294,0.0,0.0,87,0.00,BKN,OVC,0.00,0.0,WeatherDisplay:10.37,2013-07-10 01:46:00,
2013-07-09 21:51:00,70.3,66.3,30.06,West,278,0.0,0.0,87,0.00,BKN,OVC,0.00,0.0,WeatherDisplay:10.37,2013-07-10 01:51:00,
2013-07-09 21:56:00,70.3,66.3,30.06,South,170,0.0,0.0,87,0.00,BKN,OVC,0.00,0.0,WeatherDisplay:10.37,2013-07-10 01:56:00,
2013-07-09 22:01:00,70.2,66.1,30.06,NNW,342,0.0,0.0,87,0.00,BKN,OVC,0.00,0.0,WeatherDisplay:10.37,2013-07-10 02:01:00,
2013-07-09 22:06:00,70.0,65.9,30.06,NW,307,0.0,0.0,87,0.00,BKN,OVC,0.00,0.0,WeatherDisplay:10.37,2013-07-10 02:06:00,
2013-07-09 22:11:00,69.8,65.8,30.06,North,2,0.0,0.0,87,0.00,BKN,OVC,0.00,0.0,WeatherDisplay:10.37,2013-07-10 02:11:00,
2013-07-09 22:16:00,69.8,66.1,30.06,North,2,0.0,0.0,88,0.00,SCT,OVC,0.00,0.0,WeatherDisplay:10.37,2013-07-10 02:16:00,
2013-07-09 22:21:00,69.6,65.9,30.06,North,2,0.0,0.0,88,0.00,SCT,OVC,0.00,0.0,WeatherDisplay:10.37,2013-07-10 02:21:00,
2013-07-09 22:26:00,69.4,66.1,30.06,North,2,0.0,0.0,89,0.00,SCT,OVC,0.00,0.0,WeatherDisplay:10.37,2013-07-10 02:26:00,
2013-07-09 22:31:00,69.4,66.1,30.06,North,2,0.0,0.0,89,0.00,SCT,OVC,0.00,0.0,WeatherDisplay:10.37,2013-07-10 02:31:00,
2013-07-09 22:36:00,69.3,65.9,30.06,North,2,0.0,0.0,89,0.00,SCT,OVC,0.00,0.0,WeatherDisplay:10.37,2013-07-10 02:36:00,
2013-07-09 22:41:00,69.1,65.7,30.06,North,2,0.0,0.0,89,0.00,SCT,OVC,0.00,0.0,WeatherDisplay:10.37,2013-07-10 02:41:00,
2013-07-09 22:46:00,69.1,65.7,30.06,North,2,0.0,0.0,89,0.00,BKN,OVC,0.00,0.0,WeatherDisplay:10.37,2013-07-10 02:46:00,
2013-07-09 22:51:00,68.9,65.5,30.06,North,2,0.0,0.0,89,0.00,BKN,OVC,0.00,0.0,WeatherDisplay:10.37,2013-07-10 02:51:00,
2013-07-09 22:56:00,68.9,65.5,30.06,North,2,0.0,0.0,89,0.00,BKN,OVC,0.00,0.0,WeatherDisplay:10.37,2013-07-10 02:56:00,
2013-07-09 23:01:00,68.7,65.3,30.06,North,2,0.0,0.0,89,0.00,OVC,,0.00,0.0,WeatherDisplay:10.37,2013-07-10 03:01:00,
2013-07-09 23:06:00,68.7,65.7,30.06,North,2,0.0,0.0,90,0.00,OVC,,0.00,0.0,WeatherDisplay:10.37,2013-07-10 03:06:00,
2013-07-09 23:11:00,68.5,65.5,30.06,North,2,0.0,0.0,90,0.00,OVC,,0.00,0.0,WeatherDisplay:10.37,2013-07-10 03:11:00,
2013-07-09 23:16:00,68.5,65.5,30.06,North,2,0.0,0.0,90,0.00,OVC,,0.00,0.0,WeatherDisplay:10.37,2013-07-10 03:16:00,
2013-07-09 23:21:00,68.5,65.5,30.06,North,2,0.0,0.0,90,0.00,OVC,,0.00,0.0,WeatherDisplay:10.37,2013-07-10 03:21:00,
2013-07-09 23:26:00,68.5,65.8,30.06,North,2,0.0,0.0,91,0.00,OVC,,0.00,0.0,WeatherDisplay:10.37,2013-07-10 03:26:00,
2013-07-09 23:31:00,68.5,65.8,30.06,North,2,0.0,0.0,91,0.00,OVC,,0.00,0.0,WeatherDisplay:10.37,2013-07-10 03:31:00,
2013-07-09 23:36:00,68.5,65.8,30.06,North,2,0.0,0.0,91,0.00,OVC,,0.00,0.0,WeatherDisplay:10.37,2013-07-10 03:36:00,
2013-07-09 23:41:00,68.5,65.8,30.03,North,2,0.0,0.0,91,0.00,OVC,,0.00,0.0,WeatherDisplay:10.37,2013-07-10 03:41:00,
2013-07-09 23:46:00,68.5,65.8,30.03,North,2,0.0,0.0,91,0.00,OVC,,0.00,0.0,WeatherDisplay:10.37,2013-07-10 03:46:00,
2013-07-09 23:51:00,68.5,65.8,30.03,North,2,0.0,0.0,91,0.00,OVC,,0.00,0.0,WeatherDisplay:10.37,2013-07-10 03:51:00,
2013-07-09 23:56:00,68.5,65.8,30.03,North,2,0.0,0.0,91,0.00,OVC,,0.00,0.0,WeatherDisplay:10.37,2013-07-10 03:56:00,